^^
Station Historical Data
Daily Summary for February 15, 2018 Units:  English    Metric   Both
Next Day »
Daily Weekly Monthly Yearly Custom
  High: Low: Average:
Temperature: 58.1 °F 52.2 °F 54.5 °F
Dew Point: 55.8 °F 50.2 °F 52.5 °F
Humidity: 94% 90% 93%
Wind Speed: 5.8mph 0mph 1.2mph
Wind Gust: 5.8mph - -
Wind- - West
Pressure: 30.1 in 30 in -
Precipitation: 0.94 in    
Historical Graphs
 
 
Tabular Data for February 15, 2018
Time Temperature Dew Point Pressure Wind Wind Speed Wind Gust Humidity Rainfall Rate (Hourly) solar Conditions
00:01 53.1 °F 50.7 °F 30.1 in Calm     92% 0.06 in 0.0 W/m2 RA
00:03 53.1 °F 50.7 °F 30.1 in Calm     92% 0.06 in 0.0 W/m2 RA
00:08 53.1 °F 50.7 °F 30.1 in Calm     92% 0.07 in 0.0 W/m2 RA
00:13 53.1 °F 50.7 °F 30.1 in West 1.2 mph 1.2 mph 92% 0.06 in 0.0 W/m2 RA
00:19 53.1 °F 50.7 °F 30.1 in Calm     92% 0.05 in 0.0 W/m2 OVC
00:24 53.1 °F 50.7 °F 30.1 in Calm     92% 0.06 in 0.0 W/m2 RA
00:29 53.1 °F 50.7 °F 30.1 in Calm     92% 0.05 in 0.0 W/m2 RA
00:34 53.1 °F 50.7 °F 30.1 in West 1.2 mph 1.2 mph 92% 0.06 in 0.0 W/m2 RA
00:39 53.1 °F 50.7 °F 30.1 in Calm     92% 0.06 in 0.0 W/m2 RA
00:44 53.1 °F 50.7 °F 30.1 in Calm     92% 0.05 in 0.0 W/m2 OVC
00:49 53.1 °F 50.7 °F 30.1 in Calm     92% 0.06 in 0.0 W/m2 RA
00:54 53.1 °F 50.7 °F 30.1 in Calm     92% 0.05 in 0.0 W/m2 RA
00:56 53.1 °F 50.7 °F 30.1 in Calm     92% 0.05 in 0.0 W/m2 OVC
00:59 52.9 °F 50.5 °F 30.1 in Calm     92% 0.05 in 0.0 W/m2 OVC
01:04 52.9 °F 50.5 °F 30.1 in Calm     92% 0.04 in 0.0 W/m2 OVC
01:09 52.9 °F 50.5 °F 30.1 in Calm     92% 0.04 in 0.0 W/m2 RA
01:14 52.9 °F 50.5 °F 30.1 in Calm     92% 0.04 in 0.0 W/m2 RA
01:19 52.9 °F 50.5 °F 30.1 in Calm     92% 0.04 in 0.0 W/m2 OVC
01:24 52.9 °F 50.5 °F 30.1 in Calm     92% 0.03 in 0.0 W/m2 OVC
01:29 52.9 °F 50.5 °F 30.1 in Calm     92% 0.04 in 0.0 W/m2 RA
01:34 52.9 °F 50.5 °F 30.1 in Calm     92% 0.03 in 0.0 W/m2 RA
01:39 52.7 °F 50.4 °F 30.1 in Calm     92% 0.04 in 0.0 W/m2 -RA
01:40 52.7 °F 50.4 °F 30.1 in Calm     92% 0.04 in 0.0 W/m2 -RA
01:45 52.5 °F 50.4 °F 30.1 in Calm     92% 0 in 0.0 W/m2 -RA
01:50 52.5 °F 50.4 °F 30.1 in Calm     92% 0.04 in 0.0 W/m2 -RA
01:55 52.5 °F 50.4 °F 30.1 in Calm     92% 0.05 in 0.0 W/m2 -RA
02:00 52.5 °F 50.4 °F 30 in Calm     92% 0.05 in 0.0 W/m2 -RA
02:05 52.5 °F 50.4 °F 30.1 in Calm     92% 0.05 in 0.0 W/m2 -RA
02:10 52.5 °F 50.2 °F 30.1 in Calm     92% 0.05 in 0.0 W/m2 -RA
02:15 52.5 °F 50.4 °F 30.1 in Calm     92% 0.06 in 0.0 W/m2 -RA
02:20 52.5 °F 50.4 °F 30.1 in Calm     92% 0.06 in 0.0 W/m2 -RA
02:25 52.5 °F 50.4 °F 30 in Calm     92% 0.07 in 0.0 W/m2 -RA
02:30 52.5 °F 50.5 °F 30 in Calm     93% 0.07 in 0.0 W/m2 -RA
02:34 52.5 °F 50.5 °F 30 in Calm     93% 0.08 in 0.0 W/m2 -RA
02:35 52.5 °F 50.5 °F 30 in Calm     93% 0.08 in 0.0 W/m2 -RA
02:36 52.5 °F 50.5 °F 30 in Calm     93% 0.08 in 0.0 W/m2 -RA
02:40 52.5 °F 50.5 °F 30 in Calm     93% 0.08 in 0.0 W/m2 -RA
02:45 52.5 °F 50.5 °F 30 in Calm     93% 0.08 in 0.0 W/m2 -RA
02:49 52.7 °F 50.7 °F 30.1 in West 1 mph   93% 0.09 in 0.0 W/m2 -RA
02:50 52.7 °F 50.7 °F 30 in West 2 mph 2 mph 93% 0.08 in 0.0 W/m2 -RA
02:55 52.7 °F 50.7 °F 30 in Calm     93% 0.08 in 0.0 W/m2 -RA
02:57 52.9 °F 50.7 °F 30 in West 1 mph   93% 0.08 in 0.0 W/m2 -RA
03:00 52.9 °F 50.7 °F 30 in West 1.2 mph 1.2 mph 93% 0.09 in 0.0 W/m2 -RA
03:01 52.9 °F 50.7 °F 30 in West 1.2 mph 1.2 mph 93% 0.09 in 0.0 W/m2 RA
03:05 52.9 °F 50.7 °F 30 in Calm     93% 0.1 in 0.0 W/m2 RA
03:06 52.9 °F 50.7 °F 30 in Calm     93% 0.1 in 0.0 W/m2 RA
03:08 52.9 °F 50.7 °F 30 in Calm     93% 0.09 in 0.0 W/m2 RA
03:10 52.9 °F 50.7 °F 30 in Calm     93% 0.1 in 0.0 W/m2 RA
03:15 52.9 °F 50.7 °F 30 in Calm     93% 0.1 in 0.0 W/m2 RA
03:19 52.9 °F 50.7 °F 30 in Calm     93% 0.1 in 0.0 W/m2 RA
03:20 52.7 °F 50.7 °F 30 in Calm     93% 0.1 in 0.0 W/m2 RA
03:21 52.9 °F 50.7 °F 30 in Calm     93% 0.09 in 0.0 W/m2 RA
03:25 52.9 °F 50.7 °F 30 in Calm     93% 0.1 in 0.0 W/m2 RA
03:30 52.9 °F 50.7 °F 30 in Calm     93% 0.1 in 0.0 W/m2 RA
03:36 52.9 °F 50.7 °F 30 in Calm     93% 0.09 in 0.0 W/m2 RA
03:41 52.9 °F 50.7 °F 30 in Calm     93% 0.1 in 0.0 W/m2 RA
03:46 52.7 °F 50.7 °F 30 in Calm     93% 0.12 in 0.0 W/m2 RA
03:51 52.9 °F 50.7 °F 30 in Calm     93% 0.12 in 0.0 W/m2 RA
03:52 52.9 °F 50.7 °F 30 in Calm     93% 0.12 in 0.0 W/m2 RA
03:56 52.7 °F 50.7 °F 30 in Calm     93% 0.12 in 0.0 W/m2 RA
03:57 52.9 °F 50.7 °F 30 in Calm     93% 0.12 in 0.0 W/m2 RA
04:01 52.7 °F 50.7 °F 30 in Calm     93% 0.12 in 0.0 W/m2 RA
04:06 52.9 °F 50.7 °F 30 in Calm     93% 0.12 in 0.0 W/m2 RA
04:11 52.9 °F 50.7 °F 30 in Calm     93% 0.12 in 0.0 W/m2 RA
04:16 52.7 °F 50.7 °F 30 in Calm     93% 0.12 in 0.0 W/m2 RA
04:17 52.9 °F 50.7 °F 30 in Calm     93% 0.12 in 0.0 W/m2 RA
04:21 52.9 °F 50.7 °F 30 in Calm     93% 0.13 in 0.0 W/m2 RA
04:25 52.7 °F 50.7 °F 30 in Calm     93% 0.14 in 0.0 W/m2 RA
04:26 52.9 °F 50.7 °F 30 in Calm     93% 0.15 in 0.0 W/m2 RA
04:28 52.9 °F 50.7 °F 30 in NNW 1.2 mph   93% 0.15 in 0.0 W/m2 RA
04:31 52.9 °F 50.7 °F 30 in Calm     93% 0.15 in 0.0 W/m2 RA
04:36 52.7 °F 50.7 °F 30 in NNW 2.3 mph 2.3 mph 93% 0.15 in 0.0 W/m2 RA
04:40 52.5 °F 50.5 °F 30 in Calm     93% 0.14 in 0.0 W/m2 RA
04:41 52.5 °F 50.5 °F 30 in Calm     93% 0.15 in 0.0 W/m2 RA
04:42 52.5 °F 50.5 °F 30 in Calm     93% 0.15 in 0.0 W/m2 RA
04:46 52.5 °F 50.5 °F 30 in Calm     93% 0.14 in 0.0 W/m2 RA
04:51 52.3 °F 50.4 °F 30 in Calm     93% 0.14 in 0.0 W/m2 RA
04:56 52.3 °F 50.4 °F 30 in Calm     93% 0.14 in 0.0 W/m2 RA
05:01 52.2 °F 50.2 °F 30 in Calm     93% 0.13 in 0.0 W/m2 +RA
05:07 52.2 °F 50.2 °F 30 in NW 1.2 mph 1.2 mph 93% 0.13 in 0.0 W/m2 +RA
05:11 52.2 °F 50.2 °F 30 in Calm     93% 0.13 in 0.0 W/m2 RA
05:12 52.2 °F 50.2 °F 30 in Calm     93% 0.13 in 0.0 W/m2 RA
05:17 52.2 °F 50.2 °F 30 in Calm     93% 0.13 in 0.0 W/m2 RA
05:22 52.3 °F 50.4 °F 30 in Calm     93% 0.11 in 0.0 W/m2 RA
05:27 52.3 °F 50.4 °F 30 in West 2.3 mph 2.3 mph 93% 0.1 in 0.0 W/m2 RA
05:32 52.5 °F 50.5 °F 30 in West 1.2 mph 1.2 mph 93% 0.09 in 0.0 W/m2 RA
05:37 52.5 °F 50.5 °F 30 in West 2.3 mph 2.3 mph 93% 0.09 in 0.0 W/m2 RA
05:42 52.5 °F 50.5 °F 30 in Calm     93% 0.09 in 0.0 W/m2 RA
05:47 52.5 °F 50.5 °F 30 in WNW 1.2 mph 1.2 mph 93% 0.09 in 0.0 W/m2 -RA
05:52 52.5 °F 50.5 °F 30 in SW 3.5 mph 3.5 mph 93% 0.09 in 0.0 W/m2 -RA
05:56 52.5 °F 50.5 °F 30 in WNW 1.2 mph 1.2 mph 93% 0.08 in 0.0 W/m2 -RA
05:57 52.5 °F 50.5 °F 30 in WNW 1.2 mph   93% 0.08 in 0.0 W/m2 -RA
05:58 52.5 °F 50.5 °F 30 in WNW 1.2 mph 1.2 mph 93% 0.08 in 0.0 W/m2 -RA
06:02 52.5 °F 50.5 °F 30 in Calm     93% 0.09 in 0.0 W/m2 -RA
06:07 52.5 °F 50.5 °F 30 in Calm     93% 0.09 in 0.0 W/m2 -RA
06:11 52.5 °F 50.5 °F 30 in WNW 1.2 mph   93% 0.08 in 0.0 W/m2 -RA
06:12 52.5 °F 50.5 °F 30 in Calm     93% 0.08 in 0.0 W/m2 -RA
06:17 52.5 °F 50.5 °F 30 in Calm     93% 0.08 in 0.0 W/m2 -RA
06:22 52.5 °F 50.5 °F 30 in Calm     93% 0.08 in 0.0 W/m2 -RA
06:24 52.5 °F 50.5 °F 30 in Calm     93% 0.08 in 0.0 W/m2 -RA
06:27 52.5 °F 50.5 °F 30 in Calm     93% 0.08 in 0.0 W/m2 -RA
06:33 52.3 °F 50.4 °F 30 in Calm     93% 0.08 in 0.0 W/m2 -RA
06:38 52.3 °F 50.4 °F 30 in Calm     93% 0.08 in 0.0 W/m2 -RA
06:43 52.3 °F 50.4 °F 30 in WNW 1.2 mph 1.2 mph 93% 0.07 in 0.0 W/m2 -RA
06:48 52.3 °F 50.4 °F 30 in Calm     93% 0.07 in 0.0 W/m2 -RA
06:53 52.3 °F 50.4 °F 30 in WNW 1.2 mph 1.2 mph 93% 0.06 in 0.0 W/m2 -RA
06:58 52.3 °F 50.4 °F 30 in Calm     93% 0.07 in 0.0 W/m2 -RA
07:02 52.3 °F 50.4 °F 30 in WNW 2.3 mph 2.3 mph 93% 0.06 in 0.0 W/m2 RA
07:03 52.3 °F 50.4 °F 30 in WNW 2.3 mph   93% 0.07 in 0.0 W/m2 RA
07:05 52.3 °F 50.4 °F 30 in Calm     93% 0.06 in 0.0 W/m2 RA
07:08 52.3 °F 50.4 °F 30 in West 1.2 mph 1.2 mph 93% 0.06 in 0.0 W/m2 RA
07:13 52.3 °F 50.4 °F 30 in Calm     93% 0.07 in 0.0 W/m2 RA
07:18 52.3 °F 50.4 °F 30 in Calm     93% 0.07 in 0.0 W/m2 RA
07:21 52.3 °F 50.4 °F 30 in West 1.2 mph   93% 0.07 in 0.0 W/m2 RA
07:23 52.3 °F 50.4 °F 30 in Calm     93% 0.06 in 0.0 W/m2 RA
07:27 52.2 °F 50.2 °F 30 in West 1 mph 1 mph 93% 0.07 in 0.0 W/m2 RA
07:32 52.2 °F 50.2 °F 30 in West 1.2 mph 1.2 mph 93% 0.08 in 0.0 W/m2 RA
07:37 52.2 °F 50.2 °F 30 in Calm     93% 0.07 in 5.0 W/m2 RA
07:41 52.2 °F 50.2 °F 30 in West 2.3 mph 2.3 mph 93% 0.08 in 0.0 W/m2 RA
07:42 52.2 °F 50.5 °F 30 in West 2.3 mph 2.3 mph 94% 0.08 in 5.0 W/m2 RA
07:47 52.2 °F 50.5 °F 30 in West 1.2 mph 1.2 mph 94% 0.08 in 5.0 W/m2 RA
07:52 52.2 °F 50.5 °F 30 in West 2.3 mph 2.3 mph 94% 0.08 in 7.0 W/m2 RA
07:57 52.2 °F 50.5 °F 30 in West 3.5 mph 3.5 mph 94% 0.07 in 9.0 W/m2 OVC
08:02 52.2 °F 50.5 °F 30.1 in West 2 mph 2 mph 94% 0.08 in 12.0 W/m2 RA
08:07 52.2 °F 50.5 °F 30.1 in West 1.2 mph 1.2 mph 94% 0.07 in 14.0 W/m2 RA
08:12 52.2 °F 50.5 °F 30.1 in West 1.2 mph 1.2 mph 94% 0.07 in 14.0 W/m2 RA
08:17 52.2 °F 50.5 °F 30.1 in WSW 2.3 mph 2.3 mph 94% 0.06 in 18.0 W/m2 RA
08:22 52.2 °F 50.5 °F 30.1 in Calm     94% 0.07 in 18.0 W/m2 +RA
08:27 52.3 °F 50.5 °F 30.1 in Calm     94% 0.07 in 14.0 W/m2 +RA
08:32 52.3 °F 50.5 °F 30.1 in Calm     94% 0.06 in 21.0 W/m2 RA
08:37 52.2 °F 50.5 °F 30.1 in Calm     94% 0.07 in 16.0 W/m2 RA
08:43 52.2 °F 50.5 °F 30.1 in Calm     94% 0.06 in 18.0 W/m2 RA
08:48 52.2 °F 50.5 °F 30.1 in WSW 1.2 mph 1.2 mph 94% 0.06 in 14.0 W/m2 RA
08:53 52.3 °F 50.5 °F 30.1 in WSW 2 mph 2 mph 94% 0.06 in 21.0 W/m2 RA
08:58 52.3 °F 50.7 °F 30.1 in WSW 1.2 mph 1.2 mph 94% 0.07 in 23.0 W/m2 RA
09:03 52.3 °F 50.7 °F 30.1 in Calm     94% 0.07 in 26.0 W/m2 RA
09:08 52.3 °F 50.7 °F 30.1 in Calm     94% 0.07 in 28.0 W/m2 RA
09:13 52.3 °F 50.7 °F 30.1 in Calm     94% 0.06 in 23.0 W/m2 OVC
09:18 52.3 °F 50.7 °F 30.1 in Calm     94% 0.06 in 25.0 W/m2 OVC
09:23 52.3 °F 50.7 °F 30.1 in Calm     94% 0.05 in 32.0 W/m2 OVC
09:28 52.3 °F 50.7 °F 30.1 in Calm     94% 0.05 in 33.0 W/m2 RA
09:33 52.3 °F 50.7 °F 30.1 in Calm     94% 0.06 in 40.0 W/m2 RA
09:38 52.5 °F 50.7 °F 30.1 in Calm     94% 0.06 in 47.0 W/m2 RA
09:43 52.5 °F 50.9 °F 30.1 in Calm     94% 0.07 in 39.0 W/m2 RA
09:48 52.7 °F 51.1 °F 30.1 in Calm     94% 0.06 in 47.0 W/m2 RA
09:53 52.7 °F 51.1 °F 30.1 in WSW 1.2 mph   94% 0.07 in 49.0 W/m2 RA
09:58 52.9 °F 51.1 °F 30.1 in Calm     94% 0.06 in 54.0 W/m2 RA
10:02 52.9 °F 51.3 °F 30.1 in WSW 1.2 mph 1.2 mph 94% 0.06 in 93.0 W/m2 -RA
10:03 52.9 °F 51.3 °F 30.1 in WSW 1.2 mph 1.2 mph 94% 0.06 in 95.0 W/m2 -RA
10:09 53.1 °F 51.3 °F 30.1 in Calm     94% 0.06 in 93.0 W/m2 -RA
10:14 53.1 °F 51.4 °F 30.1 in Calm     94% 0.06 in 65.0 W/m2 -RA
10:19 53.1 °F 51.4 °F 30.1 in Calm     94% 0.07 in 69.0 W/m2 -RA
10:24 53.2 °F 51.4 °F 30.1 in Calm     94% 0.06 in 54.0 W/m2 -RA
10:29 53.2 °F 51.6 °F 30.1 in Calm     94% 0.05 in 74.0 W/m2 -RA
10:34 53.2 °F 51.6 °F 30.1 in WSW 1.2 mph 1.2 mph 94% 0.05 in 79.0 W/m2 -RA
10:39 53.4 °F 51.6 °F 30.1 in WSW 1.2 mph 1.2 mph 94% 0.05 in 54.0 W/m2 RA
10:44 53.4 °F 51.6 °F 30.1 in WSW 1.2 mph 1.2 mph 94% 0.04 in 79.0 W/m2 RA
10:49 53.4 °F 51.8 °F 30.1 in Calm     94% 0.05 in 151.0 W/m2 RA
10:54 53.4 °F 51.8 °F 30.1 in Calm     94% 0.04 in 104.0 W/m2 RA
10:59 53.6 °F 52 °F 30.1 in Calm     94% 0.04 in 79.0 W/m2 OVC
11:04 53.8 °F 52 °F 30.1 in Calm     94% 0.03 in 88.0 W/m2 -RA
11:09 53.8 °F 52 °F 30.1 in Calm     94% 0.03 in 114.0 W/m2 -RA
11:14 53.8 °F 52.2 °F 30.1 in Calm     94% 0.04 in 116.0 W/m2 -RA
11:19 54 °F 52.2 °F 30.1 in Calm     94% 0.03 in 113.0 W/m2 -RA
11:24 54 °F 52.3 °F 30.1 in Calm     94% 0.03 in 120.0 W/m2 -RA
11:29 54.1 °F 52.3 °F 30.1 in Calm     94% 0.03 in 118.0 W/m2 -RA
11:34 54.1 °F 52.5 °F 30.1 in Calm     94% 0.03 in 158.0 W/m2 -RA
11:36 54.3 °F 52.5 °F 30.1 in Calm     94% 0.02 in 160.0 W/m2 -RA
11:39 54.3 °F 52.5 °F 30.1 in Calm     94% 0.02 in 188.0 W/m2 -RA
11:44 54.5 °F 52.9 °F 30.1 in Calm   2 mph 94% 0 in 160.0 W/m2 -RA
11:50 54.7 °F 53.1 °F 30.1 in West 3.5 mph 3.5 mph 94% 0.01 in 120.0 W/m2 -RA
11:55 54.9 °F 53.1 °F 30.1 in West 2.3 mph 2.3 mph 94% 0.01 in 130.0 W/m2 -RA
11:59 54.9 °F 53.2 °F 30.1 in West 2.3 mph 2.3 mph 94% 0.01 in 197.0 W/m2 -RA
12:00 54.9 °F 53.2 °F 30.1 in West 2.3 mph 2.3 mph 94% 0.01 in 197.0 W/m2 -RA
12:05 55 °F 53.2 °F 30.1 in West 1.2 mph 1.2 mph 94% 0.01 in 227.0 W/m2 -RA
12:10 55 °F 53.4 °F 30.1 in Calm     94% 0.01 in 188.0 W/m2 -RA
12:15 55.2 °F 53.4 °F 30.1 in West 3.5 mph 3.5 mph 94% 0 in 174.0 W/m2 -RA
12:20 55.2 °F 53.4 °F 30.1 in West 1.2 mph 1.2 mph 94% 0 in 165.0 W/m2 -RA
12:25 55.2 °F 53.6 °F 30.1 in West 2.3 mph 2.3 mph 94% 0 in 158.0 W/m2 -RA
12:30 55.2 °F 53.6 °F 30.1 in West 1.2 mph   94% 0 in 186.0 W/m2 -RA
12:35 55.4 °F 53.8 °F 30.1 in West 2.3 mph 2.3 mph 94% 0 in 183.0 W/m2 -RA
12:40 55.6 °F 53.8 °F 30.1 in Calm     94% 0 in 190.0 W/m2 -RA
12:45 55.8 °F 54 °F 30.1 in West 1.2 mph   94% 0 in 223.0 W/m2 -RA
12:50 55.8 °F 54.1 °F 30.1 in West 1.2 mph 1.2 mph 94% 0 in 204.0 W/m2 -RA
12:55 55.9 °F 54.1 °F 30.1 in West 1.2 mph 1.2 mph 94% 0 in 169.0 W/m2 -RA
13:00 55.9 °F 54.3 °F 30.1 in West 1.2 mph   94% 0 in 167.0 W/m2 -RA
13:01 55.9 °F 54.3 °F 30.1 in West 1 mph 1 mph 94% 0 in 167.0 W/m2 -RA
13:05 56.1 °F 54.3 °F 30.1 in West 1.2 mph 1.2 mph 94% 0 in 179.0 W/m2 -RA
13:10 56.1 °F 54.5 °F 30.1 in West 2.3 mph 2.3 mph 94% 0 in 204.0 W/m2 -RA
13:16 56.5 °F 54.7 °F 30.1 in WSW 2.3 mph 2.3 mph 94% 0 in 244.0 W/m2 -RA
13:18 56.5 °F 54.7 °F 30.1 in SW 3.5 mph 3.5 mph 94% 0 in 214.0 W/m2 -RA
13:21 56.5 °F 54.3 °F 30.1 in WSW 2.3 mph 2.3 mph 93% 0 in 207.0 W/m2 -RA
13:26 56.7 °F 54.7 °F 30.1 in WNW 3 mph 3 mph 93% 0 in 149.0 W/m2 -RA
13:31 56.7 °F 54.7 °F 30.1 in West 1.2 mph   93% 0 in 200.0 W/m2 -RA
13:34 56.7 °F 54.7 °F 30.1 in Calm     93% 0 in 232.0 W/m2 -RA
13:36 56.7 °F 54.7 °F 30.1 in West 1.2 mph 1.2 mph 93% 0 in 243.0 W/m2 -RA
13:41 56.8 °F 54.9 °F 30.1 in West 2.3 mph 2.3 mph 93% 0 in 221.0 W/m2 -RA
13:46 56.8 °F 54.9 °F 30.1 in West 2.3 mph 2.3 mph 93% 0 in 186.0 W/m2 -RA
13:51 56.8 °F 54.9 °F 30.1 in West 1.2 mph 1.2 mph 93% 0 in 158.0 W/m2 -RA
13:55 57 °F 55 °F 30.1 in West 1.2 mph 1.2 mph 93% 0 in 169.0 W/m2 -RA
13:57 57 °F 55 °F 30.1 in West 1.2 mph 1.2 mph 93% 0 in 181.0 W/m2 -RA
14:01 57 °F 55 °F 30.1 in West 2.3 mph 2.3 mph 93% 0 in 199.0 W/m2 OVC
14:02 57 °F 55 °F 30.1 in West 2.3 mph 2.3 mph 93% 0 in 199.0 W/m2 OVC
14:05 57 °F 55 °F 30.1 in WSW 1.2 mph 1.2 mph 93% 0 in 185.0 W/m2 OVC
14:07 57.2 °F 55.2 °F 30.1 in Calm     93% 0 in 186.0 W/m2 OVC
14:12 57.2 °F 55.2 °F 30.1 in WSW 1.2 mph 1.2 mph 93% 0 in 193.0 W/m2 OVC
14:14 57.4 °F 55.2 °F 30.1 in WSW 1.2 mph 1.2 mph 93% 0 in 186.0 W/m2 OVC
14:17 57.4 °F 55 °F 30.1 in WSW 1.2 mph 1.2 mph 92% 0 in 199.0 W/m2 OVC
14:23 57.4 °F 55 °F 30.1 in West 2 mph 2 mph 92% 0 in 181.0 W/m2 OVC
14:28 57.6 °F 55.2 °F 30.1 in West 1.2 mph 1.2 mph 92% 0 in 162.0 W/m2 OVC
14:33 57.6 °F 55.2 °F 30.1 in West 1.2 mph 1.2 mph 92% 0 in 127.0 W/m2 OVC
14:38 57.7 °F 55.4 °F 30.1 in West 1.2 mph 1.2 mph 92% 0 in 146.0 W/m2 OVC
14:43 57.7 °F 55.4 °F 30.1 in Calm     92% 0 in 151.0 W/m2 OVC
14:48 57.7 °F 55.4 °F 30 in West 1.2 mph 1.2 mph 92% 0 in 162.0 W/m2 OVC
14:53 57.7 °F 55.4 °F 30 in West 1.2 mph 1.2 mph 92% 0 in 165.0 W/m2 OVC
14:56 57.7 °F 55.6 °F 30 in West 2 mph 2 mph 92% 0 in 156.0 W/m2 OVC
14:58 57.9 °F 55.6 °F 30 in West 2.3 mph 2.3 mph 92% 0 in 156.0 W/m2 OVC
15:03 57.9 °F 55.8 °F 30 in WSW 2.3 mph 2.3 mph 92% 0 in 137.0 W/m2 OVC
15:08 57.9 °F 55.4 °F 30 in West 3.5 mph 3.5 mph 91% 0.01 in 114.0 W/m2 RA
15:13 57.9 °F 55.4 °F 30 in WSW 2.3 mph 2.3 mph 91% 0.01 in 128.0 W/m2 RA
15:18 57.9 °F 55.4 °F 30 in WSW 1.2 mph 1.2 mph 91% 0.01 in 135.0 W/m2 OVC
15:23 58.1 °F 55.6 °F 30 in WNW 3.5 mph 3.5 mph 91% 0.01 in 128.0 W/m2 OVC
15:28 57.9 °F 55.4 °F 30 in WNW 2.3 mph 2.3 mph 91% 0.01 in 105.0 W/m2 OVC
15:33 57.9 °F 55 °F 30 in WSW 3.5 mph 3.5 mph 90% 0.01 in 139.0 W/m2 OVC
15:38 57.9 °F 55 °F 30 in WSW 1.2 mph 1.2 mph 90% 0.01 in 114.0 W/m2 OVC
15:43 58.1 °F 55.2 °F 30 in WSW 3.5 mph 3.5 mph 90% 0.01 in 104.0 W/m2 OVC
15:48 58.1 °F 55.2 °F 30 in WNW 2.3 mph 2.3 mph 90% 0.01 in 90.0 W/m2 OVC
15:54 58.1 °F 55.2 °F 30.1 in West 2.3 mph 2.3 mph 90% 0.01 in 77.0 W/m2 OVC
15:59 58.1 °F 55.2 °F 30.1 in WSW 3.5 mph 3.5 mph 90% 0.01 in 86.0 W/m2 OVC
16:04 58.1 °F 55.2 °F 30 in West 2.3 mph 2.3 mph 90% 0 in 63.0 W/m2 OVC
16:09 57.9 °F 55 °F 30.1 in WSW 3.5 mph 3.5 mph 90% 0 in 72.0 W/m2 OVC
16:14 57.9 °F 55.2 °F 30.1 in WSW 2 mph 2 mph 91% 0.01 in 97.0 W/m2 RA
16:19 57.7 °F 55.2 °F 30.1 in WSW 2.3 mph 2.3 mph 91% 0.02 in 67.0 W/m2 RA
16:24 57.7 °F 55.2 °F 30.1 in WSW 3.5 mph 3.5 mph 91% 0.02 in 58.0 W/m2 RA
16:29 57.7 °F 55 °F 30.1 in West 3.5 mph 3.5 mph 91% 0.02 in 54.0 W/m2 OVC
16:34 57.6 °F 54.9 °F 30.1 in WNW 3.5 mph 3.5 mph 91% 0.02 in 74.0 W/m2 OVC
16:39 57.4 °F 54.9 °F 30.1 in WSW 2.3 mph 2.3 mph 91% 0.02 in 63.0 W/m2 OVC
16:44 57.4 °F 54.7 °F 30.1 in WNW 1.2 mph 1.2 mph 91% 0.02 in 47.0 W/m2 OVC
16:54 57.2 °F 54.7 °F 30.1 in WNW 3 mph 3 mph 91% 0.02 in 40.0 W/m2 OVC
16:59 57.2 °F 54.7 °F 30.1 in WSW 1.2 mph 1.2 mph 91% 0.02 in 42.0 W/m2 OVC
17:04 57.2 °F 54.7 °F 30.1 in WSW 2.3 mph 2.3 mph 91% 0.02 in 49.0 W/m2 OVC
17:09 57 °F 54.5 °F 30.1 in WSW 1.2 mph   91% 0.02 in 33.0 W/m2 OVC
17:14 57 °F 54.3 °F 30.1 in SW 1.2 mph 1.2 mph 91% 0.01 in 25.0 W/m2 -RA
17:19 57 °F 54.9 °F 30.1 in WSW 3.5 mph 3.5 mph 92% 0 in 26.0 W/m2 -RA
17:24 57 °F 54.9 °F 30.1 in WSW 2.3 mph 2.3 mph 92% 0 in 19.0 W/m2 -RA
17:29 57 °F 54.7 °F 30.1 in West 1.2 mph 1.2 mph 92% 0 in 14.0 W/m2 -RA
17:35 57 °F 54.7 °F 30.1 in West 2.3 mph 2.3 mph 92% 0 in 14.0 W/m2 -RA
17:40 56.8 °F 54.7 °F 30.1 in WSW 2.3 mph   92% 0 in 18.0 W/m2 -RA
17:45 56.8 °F 54.7 °F 30.1 in Calm   2 mph 92% 0 in 11.0 W/m2 -RA
17:50 56.8 °F 54.5 °F 30.1 in WNW 2.3 mph 2.3 mph 92% 0.01 in 7.0 W/m2 -RA
17:54 56.8 °F 54.5 °F 30.1 in WSW 1.2 mph 1.2 mph 92% 0.01 in 5.0 W/m2 -RA
17:55 56.8 °F 54.5 °F 30.1 in Calm   2 mph 92% 0.01 in 5.0 W/m2 -RA
18:00 56.8 °F 54.5 °F 30.1 in WNW 2.3 mph 2.3 mph 92% 0.01 in 0.0 W/m2 -RA
18:05 56.8 °F 54.5 °F 30.1 in WNW 1.2 mph 1.2 mph 92% 0.02 in 0.0 W/m2 -RA
18:09 56.7 °F 54.3 °F 30.1 in West 2 mph 2 mph 92% 0.02 in 0.0 W/m2 -RA
18:10 56.8 °F 54.5 °F 30.1 in West 2.3 mph 2.3 mph 92% 0.02 in 0.0 W/m2 -RA
18:15 56.7 °F 54.3 °F 30.1 in WNW 1.2 mph 1.2 mph 92% 0.02 in 0.0 W/m2 -RA
18:19 56.7 °F 54.3 °F 30.1 in West 1.2 mph 1.2 mph 92% 0.03 in 0.0 W/m2 -RA
18:20 56.7 °F 54.3 °F 30.1 in West 2.3 mph 2.3 mph 92% 0.03 in 0.0 W/m2 -RA
18:21 56.7 °F 54.3 °F 30.1 in West 2.3 mph 2.3 mph 92% 0.03 in 0.0 W/m2 -RA
18:25 56.7 °F 54.3 °F 30.1 in West 2.3 mph 2.3 mph 92% 0.03 in 0.0 W/m2 -RA
18:26 56.7 °F 54.3 °F 30.1 in West 2.3 mph 2.3 mph 92% 0.03 in 0.0 W/m2 -RA
18:27 56.7 °F 54.3 °F 30.1 in WNW 2.3 mph 2.3 mph 92% 0.03 in 0.0 W/m2 -RA
18:30 56.7 °F 54.3 °F 30.1 in SSW 3.5 mph 3.5 mph 92% 0.03 in 0.0 W/m2 -RA
18:32 56.7 °F 54.3 °F 30.1 in SW 3.5 mph 3.5 mph 92% 0.03 in 0.0 W/m2 -RA
18:35 56.7 °F 54.3 °F 30.1 in SW 2.3 mph 2.3 mph 92% 0.03 in 0.0 W/m2 -RA
18:40 56.7 °F 54.7 °F 30.1 in WSW 2.3 mph 2.3 mph 93% 0.03 in 0.0 W/m2 -RA
18:45 56.7 °F 54.7 °F 30.1 in West 3.5 mph 3.5 mph 93% 0.03 in 0.0 W/m2 -RA
18:47 56.5 °F 54.5 °F 30.1 in WSW 3.5 mph 3.5 mph 93% 0.02 in 0.0 W/m2 -RA
18:50 56.5 °F 54.5 °F 30.1 in WSW 3.5 mph 3.5 mph 93% 0.02 in 0.0 W/m2 -RA
18:55 56.5 °F 54.5 °F 30.1 in West 3.5 mph 3.5 mph 93% 0.03 in 0.0 W/m2 -RA
19:00 56.5 °F 54.3 °F 30.1 in WNW 2.3 mph 2.3 mph 93% 0.03 in 0.0 W/m2 -RA
19:05 56.5 °F 54.3 °F 30.1 in WNW 2.3 mph 2.3 mph 93% 0.02 in 0.0 W/m2 -RA
19:07 56.5 °F 54.3 °F 30.1 in WNW 1.2 mph 1.2 mph 93% 0.02 in 0.0 W/m2 -RA
19:10 56.5 °F 54.3 °F 30.1 in West 3.5 mph 3.5 mph 93% 0.02 in 0.0 W/m2 -RA
19:14 56.5 °F 54.3 °F 30.1 in WSW 2.3 mph 2.3 mph 93% 0.02 in 0.0 W/m2 -RA
19:15 56.5 °F 54.3 °F 30.1 in West 2.3 mph 2.3 mph 93% 0.02 in 0.0 W/m2 -RA
19:21 56.5 °F 54.3 °F 30.1 in WSW 5.8 mph 5.8 mph 93% 0.01 in 0.0 W/m2 -RA
19:25 56.3 °F 54.3 °F 30.1 in West 3.5 mph 3.5 mph 93% 0.01 in 0.0 W/m2 -RA
19:26 56.3 °F 54.3 °F 30.1 in West 3.5 mph 3.5 mph 93% 0.01 in 0.0 W/m2 -RA
19:31 56.3 °F 54.3 °F 30.1 in WSW 3.5 mph 3.5 mph 93% 0.01 in 0.0 W/m2 -RA
19:36 56.1 °F 54.1 °F 30.1 in WSW 3.5 mph 3.5 mph 93% 0.02 in 0.0 W/m2 -RA
19:41 56.1 °F 54.1 °F 30.1 in SW 3 mph 3 mph 93% 0.02 in 0.0 W/m2 -RA
19:46 56.1 °F 54.1 °F 30.1 in WSW 2 mph 2 mph 93% 0.02 in 0.0 W/m2 -RA
19:51 56.1 °F 54.1 °F 30.1 in West 3.5 mph 3.5 mph 93% 0.02 in 0.0 W/m2 -RA
19:56 56.1 °F 54.1 °F 30.1 in WSW 3.5 mph 3.5 mph 93% 0.01 in 0.0 W/m2 -RA
20:01 55.9 °F 54 °F 30.1 in West 2.3 mph 2.3 mph 93% 0.01 in 0.0 W/m2 -RA
20:06 55.9 °F 54 °F 30.1 in West 3.5 mph 3.5 mph 93% 0.01 in 0.0 W/m2 -RA
20:08 55.9 °F 54 °F 30.1 in West 3.5 mph 3.5 mph 93% 0.01 in 0.0 W/m2 -RA
20:09 55.9 °F 54 °F 30.1 in West 2.3 mph 2.3 mph 93% 0.01 in 0.0 W/m2 -RA
20:10 55.9 °F 54 °F 30.1 in WNW 3 mph 3 mph 93% 0.01 in 0.0 W/m2 -RA
20:11 55.9 °F 54 °F 30.1 in West 3.5 mph 3.5 mph 93% 0.01 in 0.0 W/m2 -RA
20:16 55.8 °F 53.8 °F 30.1 in WSW 1.2 mph   93% 0.01 in 0.0 W/m2 -RA
20:18 55.8 °F 53.8 °F 30.1 in WSW 1.2 mph 1.2 mph 93% 0.01 in 0.0 W/m2 -RA
20:19 55.8 °F 53.8 °F 30.1 in Calm     93% 0.01 in 0.0 W/m2 -RA
20:21 55.8 °F 53.8 °F 30.1 in WSW 2.3 mph 2.3 mph 93% 0.01 in 0.0 W/m2 -RA
20:26 55.9 °F 54 °F 30.1 in WSW 2.3 mph 2.3 mph 93% 0.01 in 0.0 W/m2 -RA
20:28 55.8 °F 53.8 °F 30.1 in WSW 2.3 mph 2.3 mph 93% 0.01 in 0.0 W/m2 -RA
20:31 55.8 °F 53.8 °F 30.1 in WSW 1.2 mph 1.2 mph 93% 0.01 in 0.0 W/m2 -RA
20:36 55.8 °F 53.8 °F 30.1 in WSW 2.3 mph 2.3 mph 93% 0 in 0.0 W/m2 -RA
20:41 55.8 °F 54.1 °F 30.1 in WSW 1.2 mph 1.2 mph 94% 0 in 0.0 W/m2 -RA
20:46 55.8 °F 54.1 °F 30.1 in WSW 1.2 mph 1.2 mph 94% 0 in 0.0 W/m2 -RA
20:52 55.8 °F 54.1 °F 30.1 in Calm     94% 0 in 0.0 W/m2 -RA
20:57 55.8 °F 54.1 °F 30.1 in Calm     94% 0 in 0.0 W/m2 OVC
21:02 55.9 °F 54.1 °F 30.1 in WSW 2.3 mph 2.3 mph 94% 0 in 0.0 W/m2 -RA
21:07 55.9 °F 54.1 °F 30.1 in WSW 2 mph 2 mph 94% 0 in 0.0 W/m2 -RA
21:12 55.9 °F 54.1 °F 30.1 in WSW 3.5 mph 3.5 mph 94% 0 in 0.0 W/m2 -RA
21:17 55.8 °F 54.1 °F 30.1 in Calm     94% 0 in 0.0 W/m2 -RA
21:22 55.8 °F 54.1 °F 30.1 in WSW 3 mph 3 mph 94% 0 in 0.0 W/m2 -RA
21:27 55.8 °F 54.1 °F 30.1 in WSW 2 mph 2 mph 94% 0 in 0.0 W/m2 -RA
21:32 55.8 °F 54 °F 30.1 in WSW 3.5 mph 3.5 mph 94% 0 in 0.0 W/m2 -RA
21:37 55.6 °F 54 °F 30.1 in West 3.5 mph 3.5 mph 94% 0 in 0.0 W/m2 -RA
21:42 55.6 °F 53.8 °F 30.1 in West 2 mph 2 mph 94% 0.01 in 0.0 W/m2 RA
21:43 55.6 °F 53.8 °F 30.1 in West 3.5 mph 3.5 mph 94% 0.01 in 0.0 W/m2 RA
21:47 55.6 °F 53.8 °F 30.1 in West 3.5 mph 3.5 mph 94% 0.01 in 0.0 W/m2 RA
21:52 55.6 °F 53.8 °F 30.1 in West 2.3 mph 2.3 mph 94% 0.01 in 0.0 W/m2 OVC
21:57 55.4 °F 53.8 °F 30.1 in West 2.3 mph 2.3 mph 94% 0.01 in 0.0 W/m2 OVC
21:59 55.4 °F 53.8 °F 30.1 in West 2.3 mph 2.3 mph 94% 0.01 in 0.0 W/m2 OVC
22:02 55.4 °F 53.8 °F 30.1 in Calm     94% 0.01 in 0.0 W/m2 OVC
22:07 55.4 °F 53.8 °F 30.1 in WSW 1.2 mph 1.2 mph 94% 0.01 in 0.0 W/m2 OVC
22:09 55.4 °F 53.8 °F 30.1 in Calm     94% 0.01 in 0.0 W/m2 OVC
22:13 55.4 °F 53.8 °F 30.1 in Calm     94% 0.01 in 0.0 W/m2 OVC
22:18 55.2 °F 53.6 °F 30.1 in WSW 1.2 mph   94% 0.01 in 0.0 W/m2 OVC
22:23 55.2 °F 53.6 °F 30.1 in WSW 1.2 mph 1.2 mph 94% 0.01 in 0.0 W/m2 OVC
22:28 55.2 °F 53.6 °F 30.1 in Calm     94% 0.01 in 0.0 W/m2 OVC
22:30 55.2 °F 53.6 °F 30.1 in Calm     94% 0.01 in 0.0 W/m2 OVC
22:33 55.2 °F 53.6 °F 30.1 in WSW 2 mph 2 mph 94% 0.01 in 0.0 W/m2 OVC
22:38 55.2 °F 53.4 °F 30.1 in WSW 1.2 mph 1.2 mph 94% 0.01 in 0.0 W/m2 OVC
22:43 55.2 °F 53.4 °F 30.1 in WSW 1.2 mph 1.2 mph 94% 0 in 0.0 W/m2 OVC
22:47 55.2 °F 53.4 °F 30.1 in WSW 1.2 mph 1.2 mph 94% 0 in 0.0 W/m2 OVC
22:48 55.2 °F 53.4 °F 30.1 in WSW 1.2 mph 1.2 mph 94% 0 in 0.0 W/m2 OVC
22:50 55.2 °F 53.4 °F 30.1 in WSW 1.2 mph 1.2 mph 94% 0 in 0.0 W/m2 OVC
22:53 55.2 °F 53.6 °F 30.1 in WSW 2.3 mph 2.3 mph 94% 0 in 0.0 W/m2 OVC
22:58 55.2 °F 53.6 °F 30.1 in Calm     94% 0 in 0.0 W/m2 OVC
23:03 55.2 °F 53.6 °F 30.1 in Calm     94% 0.01 in 0.0 W/m2 RA
23:08 55.2 °F 53.6 °F 30.1 in Calm     94% 0.01 in 0.0 W/m2 RA
23:13 55.2 °F 53.6 °F 30.1 in WSW 2.3 mph   94% 0.01 in 0.0 W/m2 OVC
23:18 55.2 °F 53.6 °F 30.1 in Calm     94% 0.01 in 0.0 W/m2 OVC
23:24 55.2 °F 53.6 °F 30.1 in Calm   0.6 mph 94% 0.01 in 0.0 W/m2 OVC
23:29 55.2 °F 53.6 °F 30.1 in Calm     94% 0.01 in 0.0 W/m2 OVC
23:34 55.2 °F 53.6 °F 30.1 in WSW 1.2 mph 1.2 mph 94% 0.01 in 0.0 W/m2 OVC
23:39 55.2 °F 53.6 °F 30.1 in Calm     94% 0.01 in 0.0 W/m2 OVC
23:44 55.2 °F 53.6 °F 30.1 in WSW 1.2 mph 1.2 mph 94% 0.01 in 0.0 W/m2 OVC
23:49 55.2 °F 53.6 °F 30.1 in WSW 1.2 mph 1.2 mph 94% 0.01 in 0.0 W/m2 OVC
23:54 55.2 °F 53.6 °F 30.1 in WSW 1.2 mph 1.2 mph 94% 0.01 in 0.0 W/m2 OVC
23:59 55.2 °F 53.6 °F 30.1 in WSW 1.2 mph 1.2 mph 94% 0 in 0.0 W/m2 OVC
Countryside Manor, Tucson, AZ, USA